Theta_e
357 355 353 347 324 323 316 317 326 323 321 331 334 331 329 332 327 319 345 349 351 353 358 360 364 363 363 365 365 364 364 365 366 364 364 362 360 358 360 361 361 361 361 361 361 361 360 359 358
342 353 351 337 320 312 313 320 322 326 326 333 334 334 330 328 337 339 339 349 351 354 356 358 364 365 363 363 363 363 364 363 363 363 364 362 359 358 360 360 360 360 360 360 359 359 359 358 359
342 352 335 326 318 313 312 324 325 330 330 330 331 336 334 330 338 339 344 349 350 351 355 359 367 367 365 365 364 363 363 363 362 362 361 361 357 360 359 359 359 360 360 360 360 360 359 359 358
347 342 337 319 318 322 322 324 331 329 331 332 333 330 338 343 340 342 346 349 350 353 357 364 365 363 363 364 364 363 363 362 362 361 360 361 357 360 360 360 360 359 360 361 361 360 359 360 359
346 338 322 318 320 326 326 329 331 327 329 331 334 328 331 341 343 343 345 348 349 352 358 360 366 365 364 363 362 363 362 362 362 361 360 359 356 359 362 361 362 360 359 358 358 358 359 358 358
332 332 317 313 320 328 331 333 331 330 331 331 332 331 331 342 343 345 347 347 353 352 357 359 365 366 363 363 362 362 362 361 362 360 360 358 358 360 361 359 359 359 358 356 356 357 358 358 359
324 323 317 318 322 325 330 335 328 329 329 328 336 328 333 337 343 347 347 350 352 353 354 356 356 359 362 363 361 361 361 359 359 359 358 357 357 357 358 359 360 359 358 358 357 357 358 360 358
329 326 318 320 321 323 334 333 335 333 328 336 339 327 326 335 342 344 346 348 347 349 351 352 354 354 353 353 362 360 359 359 359 358 357 354 352 356 356 361 361 358 358 357 358 357 358 360 359
336 321 314 318 321 326 335 329 335 339 333 337 337 336 339 342 344 343 342 344 343 346 348 352 352 353 352 354 357 360 359 358 359 356 357 351 348 347 354 358 360 358 359 358 357 358 359 359 358
328 318 320 326 328 328 333 331 332 331 329 332 335 339 342 342 340 339 341 340 342 343 344 347 349 351 353 357 353 352 353 350 350 348 349 350 350 347 350 357 358 359 358 357 354 355 359 358 352
327 322 323 330 331 334 332 331 333 330 326 329 332 335 338 339 338 338 338 341 342 344 346 347 352 350 351 352 353 353 352 350 350 348 346 350 351 352 351 352 352 350 357 353 353 353 351 351 352
323 327 327 331 334 333 331 332 329 331 332 334 335 339 338 337 337 337 336 341 343 343 344 349 350 351 351 352 352 351 351 349 348 348 348 347 350 349 350 350 349 350 351 347 349 350 351 350 354
324 329 332 334 334 332 334 331 330 328 333 335 335 336 337 337 337 340 340 341 342 342 344 348 349 349 348 350 350 350 349 348 348 347 348 344 345 348 349 350 349 343 345 349 350 350 340 341 345
325 328 328 327 328 331 331 330 331 330 332 331 333 334 336 334 337 337 339 339 341 343 344 348 348 349 349 348 348 348 347 346 346 348 345 344 350 348 347 349 349 347 347 347 350 347 343 338 340
326 321 321 325 325 329 331 324 327 330 332 328 330 329 333 333 334 336 339 340 341 342 345 345 347 349 350 348 347 348 346 346 345 345 344 349 349 350 346 347 348 349 349 351 349 344 340 336 343
317 320 312 320 324 331 327 313 327 333 329 327 330 330 330 331 330 335 340 341 341 343 342 345 349 347 348 346 347 347 347 345 343 345 346 347 353 350 349 349 349 348 351 351 350 342 340 340 344
316 308 312 319 325 328 324 317 329 332 329 326 327 328 329 330 330 332 338 338 340 343 343 343 344 344 346 346 345 345 347 347 345 347 348 349 350 345 344 344 344 342 348 345 346 349 345 346 343
306 307 316 315 323 323 320 320 327 330 328 325 327 328 328 330 331 333 336 339 340 343 344 343 343 343 342 341 340 346 346 347 347 346 349 348 349 342 345 345 343 342 347 350 347 347 344 340 339
311 310 307 316 326 323 318 320 324 330 328 323 326 325 326 327 332 334 336 340 340 343 342 344 344 343 340 340 337 340 340 342 344 346 347 350 348 344 343 342 342 342 341 343 345 350 342 340 342
307 305 306 314 323 317 314 315 326 328 326 325 326 326 327 329 331 333 333 339 339 341 342 345 344 343 340 339 339 342 342 342 344 346 346 348 346 348 341 340 340 341 341 344 346 350 346 343 337
304 302 305 307 315 315 312 310 317 317 321 321 322 330 329 327 331 332 334 336 339 340 344 344 344 344 339 338 340 343 344 342 339 342 345 345 352 344 342 341 340 343 345 342 337 350 347 336 333
297 309 310 311 304 298 308 296 311 315 318 321 326 329 327 325 333 333 334 334 338 340 345 345 345 345 344 343 338 341 339 333 337 340 344 348 349 350 342 341 341 340 341 337 346 354 350 340 338
303 310 309 310 303 300 303 301 307 316 315 317 323 326 329 331 333 333 335 335 340 342 344 346 345 346 347 345 343 343 332 332 334 338 340 346 349 353 351 341 342 347 347 348 352 352 350 344 335
310 307 305 305 300 294 301 305 305 311 315 316 322 323 327 329 333 335 336 336 341 342 344 347 345 344 346 347 345 343 334 336 338 341 339 346 350 345 346 351 352 352 351 352 351 354 349 351 348
304 296 291 292 292 295 304 302 305 316 320 319 318 319 323 328 330 334 334 335 340 340 343 346 346 344 347 348 345 345 346 346 342 340 340 341 344 344 344 348 349 350 351 350 352 352 351 349 351
299 295 293 288 291 296 304 299 305 318 320 323 324 324 327 330 331 332 335 336 340 341 342 344 346 346 347 348 346 347 345 346 341 339 343 347 347 346 349 351 354 352 353 350 350 350 350 351 351
300 295 300 294 295 294 298 307 316 317 318 320 322 328 330 331 331 333 334 335 338 341 343 343 345 347 348 349 348 348 347 347 346 336 344 347 349 350 353 354 354 352 349 351 352 351 348 351 348
302 303 293 295 289 289 295 303 305 311 313 317 319 323 322 331 331 333 334 335 339 342 344 346 347 347 348 348 350 350 348 348 347 348 348 340 342 345 345 346 343 344 351 351 349 349 348 348 350
298 295 296 295 295 291 291 297 312 313 313 316 321 325 325 321 330 331 334 335 338 343 344 345 347 346 347 347 348 346 349 350 349 348 347 342 338 349 347 345 344 349 349 351 352 347 349 348 348
307 299 297 292 292 295 295 296 317 317 318 320 318 320 322 322 324 331 335 335 338 340 345 346 347 347 348 348 348 348 349 349 349 349 348 348 348 351 350 349 350 348 348 350 348 350 350 347 346
Wind_Speed
3 6 3 4 5 4 4 8 3 4 10 16 16 13 13 4 4 7 8 18 19 14 11 13 15 14 14 14 13 12 13 12 13 14 13 13 13 10 11 12 11 11 10 9 9 9 8 7 6
4 9 4 3 3 3 2 9 13 11 6 19 20 20 16 14 14 12 9 14 18 15 11 11 15 16 15 15 14 12 13 13 12 12 11 11 12 10 11 11 9 8 8 9 8 7 6 7 8
5 7 2 2 2 3 1 4 17 17 8 13 16 13 9 11 13 7 18 13 15 13 11 12 14 15 15 15 13 14 12 11 11 11 12 12 10 11 10 10 11 9 9 9 9 8 7 8 7
5 4 5 4 4 5 8 11 12 5 9 15 16 14 9 5 5 10 18 18 14 14 12 13 15 14 14 13 13 12 12 11 11 11 11 11 10 11 11 10 11 11 9 9 9 9 9 8 8
6 3 3 3 1 5 8 10 6 5 5 19 18 10 8 14 16 20 18 16 16 14 12 12 15 14 13 13 12 11 10 11 11 11 11 11 9 10 13 10 10 10 8 8 8 8 8 7 7
1 3 2 3 6 6 3 4 5 5 6 16 20 13 6 14 12 9 11 11 16 15 12 11 14 14 14 12 11 11 10 9 10 10 11 11 9 11 11 9 9 9 9 8 8 8 7 6 6
4 3 2 5 3 2 5 3 4 2 7 12 14 9 7 9 10 9 8 11 14 13 14 10 8 11 13 12 11 9 10 9 9 10 10 10 9 9 6 6 7 7 7 8 8 8 7 7 7
5 4 5 6 1 2 2 4 4 3 4 10 15 8 9 5 12 14 11 9 8 7 11 10 8 7 7 6 13 11 9 9 10 9 10 8 7 7 4 2 4 5 6 7 7 9 8 9 9
6 5 5 7 3 3 2 4 3 3 6 18 11 18 14 10 11 9 12 7 6 4 7 8 8 9 8 6 7 11 11 10 11 10 9 5 1 2 1 3 5 4 5 6 6 7 10 9 10
6 5 3 7 6 4 5 6 3 2 9 18 18 20 17 14 8 10 11 9 5 7 7 7 5 7 9 7 5 5 5 3 3 3 3 2 2 3 5 3 4 6 4 5 4 5 6 6 2
1 8 7 2 5 7 5 4 3 2 6 8 7 17 17 15 10 8 9 12 9 7 6 8 6 7 7 6 4 3 2 2 3 5 3 3 2 2 3 3 2 3 3 1 4 2 2 2 5
6 8 4 7 6 3 5 6 7 3 6 5 9 12 17 14 14 11 8 11 10 8 7 8 7 7 7 5 4 4 3 3 2 4 4 0 2 4 3 2 2 3 3 4 4 2 3 4 9
2 6 12 16 5 7 11 9 5 5 7 14 18 15 17 15 12 15 10 7 9 9 7 6 8 6 5 6 4 4 3 3 3 4 3 0 2 2 5 5 5 3 3 3 3 5 4 2 3
3 11 10 8 2 7 11 8 6 9 12 15 13 20 16 13 16 11 13 10 11 11 8 7 7 7 6 5 5 3 3 4 3 3 3 3 1 3 6 4 4 5 6 4 2 5 5 6 5
7 13 27 18 5 4 9 7 8 11 15 13 13 8 15 14 14 17 17 15 11 10 12 7 7 7 6 6 6 5 5 4 4 4 5 4 1 4 4 2 3 7 8 6 4 1 5 3 5
2 7 9 26 9 7 9 6 7 15 13 15 17 7 4 14 10 18 19 16 11 12 10 9 9 8 6 6 5 3 3 3 4 3 4 5 3 4 4 1 4 7 7 2 3 3 2 4 0
5 5 5 7 11 5 10 5 13 15 11 12 6 11 11 7 9 10 16 15 14 14 11 11 10 8 7 6 4 4 3 4 4 4 4 6 5 6 7 5 4 5 2 1 6 3 5 4 1
9 5 9 6 10 13 13 9 7 12 11 8 6 5 6 10 13 10 15 18 14 14 10 11 8 8 7 4 3 2 3 4 4 4 4 7 4 9 7 4 1 3 6 1 2 5 1 4 5
15 8 9 10 14 10 11 10 13 14 3 9 8 8 10 7 9 8 14 17 15 14 11 13 11 8 7 4 3 2 3 2 2 4 6 6 6 7 5 3 4 3 2 4 6 4 5 2 2
11 5 10 6 11 11 8 7 15 16 7 1 3 10 15 9 9 8 9 16 17 15 13 12 11 10 7 4 3 2 3 2 3 3 4 6 7 12 5 3 4 7 6 8 8 2 2 2 6
11 5 8 10 4 3 3 2 9 3 3 5 11 12 9 12 14 13 7 16 17 16 16 13 14 11 8 6 3 1 1 3 3 3 2 4 7 14 10 5 6 2 1 5 6 3 6 5 6
7 11 9 6 7 3 4 5 3 6 6 6 9 15 11 14 16 13 14 13 18 16 16 15 14 10 9 8 6 5 4 3 4 3 1 3 5 10 12 10 6 7 3 5 7 2 4 8 8
10 8 9 4 4 6 7 2 3 1 7 11 14 10 13 16 21 19 17 13 17 17 15 15 13 12 8 7 8 5 4 2 2 2 4 5 4 5 12 12 10 8 5 7 3 3 5 6 4
7 6 10 4 1 4 5 2 5 8 7 4 5 10 20 13 21 21 19 16 18 17 15 15 14 13 8 9 8 8 9 5 1 1 5 4 4 5 5 6 6 5 4 1 1 2 5 3 4
6 4 4 6 4 8 5 1 8 16 18 28 20 22 19 13 18 22 21 17 19 19 17 15 15 12 9 8 8 8 7 6 5 3 4 1 2 2 6 4 5 4 5 5 1 2 1 0 2
7 6 6 7 4 7 5 7 10 14 12 25 23 22 18 25 17 21 20 17 22 21 19 17 16 13 12 9 8 7 7 4 5 6 3 3 3 4 7 8 6 5 6 4 4 3 2 3 3
9 6 10 6 6 6 7 6 7 11 9 8 19 23 24 21 18 22 18 18 21 21 21 19 17 14 13 11 7 7 6 6 6 7 4 3 2 2 5 7 5 5 6 6 5 4 3 3 3
11 7 4 4 3 7 7 4 5 5 7 12 12 23 11 14 20 21 21 18 17 19 19 18 17 16 15 12 9 7 7 7 6 4 5 4 5 2 3 4 4 3 5 6 5 3 3 2 4
2 4 5 2 3 3 4 5 7 11 6 9 11 16 12 1 14 18 16 16 17 17 18 17 16 14 13 11 11 8 7 7 6 5 5 6 5 5 6 6 7 4 5 5 6 5 4 3 3
6 12 10 7 10 5 5 7 6 9 11 13 9 11 9 10 4 15 17 18 16 17 18 17 15 15 14 12 13 11 10 7 7 6 7 6 6 6 7 6 4 4 5 3 5 6 5 4 5
Wind_Direction
255 247 216 287 53 42 32 334 314 259 59 77 66 76 86 88 137 139 109 120 127 130 137 137 136 134 131 128 128 128 128 120 123 126 132 129 130 126 133 130 144 148 154 164 167 173 179 167 144
267 265 212 290 64 67 134 245 285 284 103 103 94 88 68 80 85 116 86 125 128 133 138 134 135 133 135 134 136 138 132 129 128 130 139 142 137 140 143 144 145 146 142 153 163 161 156 148 159
262 254 30 45 108 93 204 286 283 292 65 109 98 56 70 116 114 127 133 131 124 132 129 137 136 132 134 135 135 133 129 131 135 150 153 157 141 140 140 143 138 142 139 148 151 151 151 149 166
251 34 32 43 316 132 178 226 269 308 357 102 112 74 71 114 96 136 133 136 134 125 131 137 138 135 134 132 131 137 135 142 153 162 163 159 142 138 134 138 137 139 148 144 150 154 160 147 149
256 67 68 297 113 214 200 205 259 352 335 101 97 90 86 92 124 142 146 147 137 131 137 144 147 146 148 142 141 141 150 156 171 172 168 158 142 139 132 139 137 132 130 148 160 164 163 154 169
251 101 353 327 330 97 54 321 83 3 323 108 108 105 84 128 121 124 118 123 127 135 137 143 145 143 142 146 145 148 153 161 170 177 172 156 147 142 136 146 149 144 159 168 176 173 168 175 181
228 86 307 310 279 85 129 287 112 284 326 98 130 109 129 124 144 128 104 120 126 142 140 141 146 146 146 145 149 156 158 162 179 177 170 160 148 139 140 170 149 147 164 176 185 181 178 184 202
100 85 16 337 213 75 138 153 300 54 353 104 137 139 146 149 94 104 101 98 91 137 141 150 150 148 155 161 161 163 168 172 182 179 165 165 169 143 142 197 139 161 171 182 188 186 190 203 226
100 62 78 266 315 150 243 156 198 356 332 63 84 113 124 121 109 107 125 120 135 149 137 159 160 166 161 161 171 166 173 183 186 178 168 155 63 302 290 252 242 197 201 202 195 190 203 212 235
95 61 232 239 42 135 192 103 107 45 21 68 107 121 136 143 144 138 142 143 135 139 162 130 165 176 155 155 159 160 176 177 165 168 144 120 95 322 313 326 238 235 220 219 218 218 231 233 276
75 180 233 289 68 84 143 72 63 82 46 50 166 139 151 160 153 168 171 158 163 179 159 155 147 155 151 150 157 177 159 162 185 139 94 27 42 347 336 319 334 339 273 273 240 218 243 24 13
111 247 241 346 102 68 108 93 74 20 187 131 243 190 165 160 169 173 175 164 146 152 155 151 148 151 159 152 165 173 163 141 139 87 90 21 50 27 16 334 282 326 315 296 299 230 157 142 165
188 91 71 293 201 135 93 92 99 110 176 186 238 218 171 166 184 158 143 151 144 156 154 146 140 151 161 166 164 168 158 142 132 113 112 354 26 34 29 356 328 306 297 268 290 53 108 59 331
190 94 138 201 294 127 129 143 121 238 230 226 236 171 176 153 172 147 149 174 166 165 151 137 136 148 165 149 148 152 140 147 134 107 178 188 316 71 112 206 257 317 276 261 103 164 203 154 185
186 60 12 317 318 197 155 135 222 196 207 230 253 217 158 162 164 161 171 163 168 138 152 150 131 134 132 145 156 159 176 156 151 174 192 152 280 48 86 254 248 288 284 252 145 43 27 317 57
241 75 114 257 264 242 132 241 196 189 185 223 241 151 144 155 141 145 159 164 161 142 147 154 145 136 137 145 152 162 179 153 161 191 146 166 202 94 115 9 334 314 272 349 95 86 93 327 26
205 185 181 254 198 194 200 227 189 174 182 200 225 156 175 174 148 153 157 149 147 156 147 133 133 141 128 136 154 178 204 164 171 150 158 165 153 126 81 2 289 331 291 305 109 223 173 212 210
235 300 176 195 188 210 201 233 174 176 173 192 213 173 170 159 168 165 148 144 138 137 134 135 130 126 127 136 135 186 156 151 143 149 161 140 143 83 95 212 324 30 283 336 145 227 178 202 161
278 235 324 183 199 195 195 216 188 157 311 229 178 194 181 215 166 164 142 143 142 127 138 134 131 137 137 149 141 140 165 175 176 186 193 146 144 134 135 270 42 33 319 340 325 257 155 17 119
302 338 304 277 181 189 216 247 169 147 171 237 265 199 197 202 157 174 152 149 151 142 149 135 137 149 153 163 168 148 152 193 173 208 205 190 146 141 180 158 31 28 346 345 325 329 95 50 38
286 248 265 265 217 204 203 149 128 343 214 164 253 241 215 196 172 175 184 161 153 152 152 148 150 163 168 178 150 141 70 37 42 2 231 193 164 155 146 179 120 212 260 288 290 324 73 58 2
270 294 290 335 6 270 153 261 208 171 239 227 249 217 193 205 187 182 187 169 161 160 149 152 154 163 176 182 164 158 144 163 203 178 302 233 179 140 166 170 175 192 216 248 257 81 94 117 111
267 283 293 242 274 318 287 128 52 37 224 191 207 233 220 215 179 186 182 182 163 159 155 157 161 160 168 167 170 155 169 173 115 137 234 237 205 186 159 189 192 185 201 227 239 16 82 139 155
291 268 309 285 15 320 290 184 175 187 220 193 241 197 223 233 185 177 185 180 164 162 157 157 167 167 171 172 181 166 175 183 187 360 193 225 195 198 199 166 170 166 145 34 300 72 51 44 118
315 312 311 327 342 241 229 67 221 217 187 192 201 212 212 218 189 176 179 182 159 164 164 166 166 171 168 167 182 185 174 158 175 198 143 297 204 186 214 195 175 174 175 184 177 105 1 326 304
217 200 183 251 254 264 96 228 248 210 223 188 206 211 207 220 190 181 173 170 163 165 166 171 169 170 172 167 183 194 189 168 188 209 183 182 204 195 209 194 173 177 187 199 178 158 238 277 256
242 259 233 261 276 300 248 264 36 223 272 183 185 201 204 186 171 173 171 166 168 166 168 171 171 168 171 168 166 197 196 185 206 217 181 189 119 176 93 122 155 208 199 191 173 181 218 243 235
164 213 331 313 257 269 293 322 189 92 97 84 78 73 341 183 162 165 170 169 162 161 168 167 171 169 170 167 173 182 194 200 219 202 212 215 147 161 128 167 175 244 212 196 194 190 237 271 238
192 218 252 214 186 213 299 281 215 183 177 108 102 118 222 61 175 164 167 165 159 155 163 167 167 165 171 168 176 177 183 202 212 205 223 224 189 181 169 201 204 224 207 206 194 197 222 262 239
236 197 189 145 278 239 203 271 148 184 127 126 128 130 189 244 227 175 162 166 158 153 159 167 166 172 175 177 175 181 183 190 208 205 207 221 222 203 191 196 205 234 248 247 198 203 212 231 239